Regional Weather Roundup
Issued by NWS Sterling, VA

Home | Current Version | Previous Version | Text Only | Print | Product List | Glossary Off
Versions: 1 2 3 4 5 6 7 8 9 10 11 12 13 14 15 16 17 18 19 20 21 22 23 24 25 26 27

308
ASUS41 KLWX 221410
RWRLWX

REGIONAL WEATHER ROUNDUP
NATIONAL WEATHER SERVICE BALTIMORE MD/WASHINGTON DC
1000 AM EDT FRI MAY 22 2015

Note: "FAIR" indicates few or no clouds below 12,000 feet
with no significant weather and/or obstructions to visibility.
 TC=TEMPERATURE CELSIUS

 * =Non NWS site. Station does not report precipitation (e.g. rain,
    snow, etc.), thunder, or fog.

DCZ001-MDZ009-015-VAZ040>042-051-053>054-221500-
WASHINGTON METRO

CITY           SKY/WX    TMP DP  RH WIND       PRES   REMARKS
WASHINGTON NAT SUNNY     65  45  48 NW10      30.10R
DULLES         SUNNY     61  42  49 NW14      30.11R
ANDREWS AFB    SUNNY     61  44  53 W13       30.09R
FT BELVOIR     SUNNY     63  44  50 NW13      30.11R
QUANTICO       SUNNY     63  45  51 NW9       30.13R
COLLEGE PARK*  SUNNY     63  45  51 NW6       30.08F
LEESBURG*      SUNNY     63  46  55 W14       30.12R
MANASSAS*      SUNNY     63  45  51 NW14      30.11S
GAITHERSBURG*  SUNNY     61  45  55 W15G22    30.13R

$$

MDZ006>007-011-014-221500-
BALTIMORE METRO

CITY           SKY/WX    TMP DP  RH WIND       PRES   REMARKS
BWI AIRPORT    SUNNY     64  44  48 NW12      30.06R
MD SCIENCE CTR   N/A     65  40  39 MISG      30.06R
MARTIN STATE   SUNNY     64  46  52 W10G23    30.06S
ANNAPOLIS      SUNNY     61  45  55 W9        30.07R
FORT MEADE*    SUNNY     61  46  59 W12       30.10S

$$

MDZ012-015-019>023-221500-
MARYLAND EASTERN SHORE

CITY           SKY/WX    TMP DP  RH WIND       PRES   REMARKS
OCEAN CITY     SUNNY     62  48  60 NW13      30.05R
SALISBURY      SUNNY     63  48  58 NW12      30.07R
BAY BRIDGE AP*   N/A    N/A N/A N/A W7        30.08R
CAMBRIDGE*     SUNNY     63  45  51 NW9       30.08R

$$

MDZ017>025-221500-
SOUTHERN MARYLAND

CITY           SKY/WX    TMP DP  RH WIND       PRES   REMARKS
PATUXENT RIVER SUNNY     62  45  53 NW14      30.10R
ST INIGOES     SUNNY     62  46  55 NW10      30.10R
LEONARDTOWN*   SUNNY     61  45  55 W8        30.12R

$$

MDZ003>005-221500-
NORTH CENTRAL MARYLAND

CITY           SKY/WX    TMP DP  RH WIND       PRES   REMARKS
FREDERICK*     SUNNY     63  46  55 W6        30.12R
HAGERSTOWN APT SUNNY     58  41  53 SW12      30.09S
WESTMINSTER*   SUNNY     61  41  48 NW8       30.07R

$$

MDZ501>502-221500-
WESTERN MARYLAND

CITY           SKY/WX    TMP DP  RH WIND       PRES   REMARKS
OAKLAND*       SUNNY     45  45 100 W13G23    30.15R
CUMBERLAND*    SUNNY     63  39  42 S3G17     30.16R

$$

VAZ025>031-221500-
SHENANDOAH VALLEY

CITY           SKY/WX    TMP DP  RH WIND       PRES   REMARKS
WINCHESTER*    SUNNY     63  37  39 W13       30.12R
FRONT ROYAL*   FAIR      59  45  58 SW5       30.12R
LURAY*         FAIR      61  45  55 SW7       30.16R
NEW MARKET*    FAIR      58  41  53 SW8       30.15R
STAUNTON*      SUNNY     60  41  49 NW3       30.18S
WAYNESBORO*    FAIR      57  39  51 W8        30.16S

$$

WVZ021-048>050-054>055-221500-
EASTERN WEST VIRGINIA PANHANDLE

CITY           SKY/WX    TMP DP  RH WIND       PRES   REMARKS
MARTINSBURG    SUNNY     61  43  51 W8        30.11R
PETERSBURG*    SUNNY     60  41  48 W5        30.17R

$$

VAZ036>039-050-221500-
CENTRAL FOOTHILLS

CITY           SKY/WX    TMP DP  RH WIND       PRES   REMARKS
CHARLOTTESVILL SUNNY     62  40  44 W12       30.14R
CULPEPER*      SUNNY     62  44  50 NW6       30.13S
ORANGE*        SUNNY     63  46  55 CALM      30.14S
GORDONSVILLE*  FAIR      61  42  50 SW6       30.13S
WARRENTON*     FAIR      65  49  55 NW7       30.12S

$$

VAZ055>057-221500-
NORTH AND CENTRAL PIEDMONT

CITY           SKY/WX    TMP DP  RH WIND       PRES   REMARKS
FREDERICKSBRG* SUNNY     64  46  52 NW9       30.12S
STAFFORD*      SUNNY     62  45  54 W7        30.16R

$$

NCZ024-NYZ072-PAZ021-071-VAZ022-071-221500-
OTHER REGIONAL OBSERVATIONS

CITY           SKY/WX    TMP DP  RH WIND       PRES   REMARKS
NEW YORK CITY  SUNNY     64  40  41 W8        29.95R
PHILADELPHIA   SUNNY     64  41  42 W14       30.00R
PITTSBURGH     MOSUNNY   58  42  55 W8        30.11S
ROANOKE        SUNNY     59  37  44 NW15G21   30.23R
RICHMOND       SUNNY     63  43  48 W9        30.14R
RALEIGH        MOSUNNY   62  45  53 VRB5      30.19R

$$

ANZ530>537-221500-
MARINE OBSERVATIONS

STATION/POSITION TIME  TEMP    WIND        PRES
                       AIR SEA DIR/SP/G
                 (UTC) (F)     (DEG/KT/KT) (MB)
THOMAS PT LIGHT  1400   59 65  290/ 14/ 16 1019.0R
BALT KEY BRIDGE  1300   57     260/ 12/ 15 1017.2R
LEWISETTA        1300   60 67              1018.9R
SOLOMONS ISLAND  1342      67                N/A
PINEY POINT      1300          330/ 19/ 21   N/A

$$




USA.gov is the U.S. government's official web portal to all federal, state and local government web resources and services.